Regional Weather Roundup
Issued by NWS Green Bay, WI

Home | Current Version | Previous Version | Text Only | Print | Product List | Glossary On
Versions: 1 2 3 4 5 6 7 8 9 10 11 12 13 14 15 16 17 18 19 20 21 22 23 24 25 26 27 28 29 30 31 32 33 34 35 36 37 38 39 40 41 42 43 44 45 46 47 48 49 50
000
ASUS43 KGRB 300100
RWRGRB

NORTH-CENTRAL AND NORTHEAST WISCONSIN REGIONAL WEATHER ROUNDUP
NATIONAL WEATHER SERVICE GREEN BAY WI
800 PM CDT THU SEP 29 2016

WIZ005-009-010>012-018-019-300200-
NORTH CENTRAL WISCONSIN

CITY           SKY/WX    TMP DP  RH WIND       PRES   REMARKS
IRONWOOD       MOCLDY    54  52  93 E7        30.47R
MANITOWISH WTR NOT AVBL
ARBOR VITAE    NOT AVBL
EAGLE RIVER    NOT AVBL
LAND O LAKES   NOT AVBL
RHINELANDER    CLEAR     57  55  93 NE7       30.43S
PHILLIPS       NOT AVBL
ANTIGO         NOT AVBL
TOMAHAWK       NOT AVBL
MERRILL        NOT AVBL
$$

WIZ013-073-300200-
NORTHEAST WISCONSIN

CITY           SKY/WX    TMP DP  RH WIND       PRES   REMARKS
IRON MOUNTAIN  CLEAR     57  49  74 N8        30.42R
MARINETTE      PTCLDY    61  55  81 NE9       30.39R
$$

WIZ017-030-035>037-045-300200-
CENTRAL WISCONSIN

CITY           SKY/WX    TMP DP  RH WIND       PRES   REMARKS
MEDFORD        NOT AVBL
WAUSAU         CLEAR     62  49  62 NE7       30.37R
MOSINEE        CLEAR     61  52  72 NE8       30.38S
MARSHFIELD     CLEAR     62  49  62 NE7       30.36S
WISC RAPIDS    CLEAR     59  51  75 NE7       30.37R
STEVENS POINT  NOT AVBL
WAUPACA        NOT AVBL
SHAWANO        NOT AVBL
CLINTONVILLE   NOT AVBL
WAUTOMA        CLEAR     61  48  62 NE8       30.35R
$$

WIZ038-039-048-051-300200-
FOX VALLEY

CITY           SKY/WX    TMP DP  RH WIND       PRES   REMARKS
NWS GREEN BAY  CLEAR     61  57  87 NE14      30.35R
APPLETON       PTCLDY    61  46  59 NE12      30.33S
OSHKOSH        CLEAR     62  53  72 NE15G21   30.32S
FOND DU LAC    CLEAR     61  51  70 NE13      30.33R
$$

WIZ022-050-052-300200-
EAST CENTRAL WISCONSIN

CITY           SKY/WX    TMP DP  RH WIND       PRES   REMARKS
EPHRAIM        NOT AVBL
WASHINGTON ISL NOT AVBL
STURGEON BAY   CLEAR     60  54  80 NE8       30.37
MANITOWOC      NOT AVBL
SHEBOYGAN      MOCLDY    61  55  81 NE16G23   30.31R
$$

LMZ563-521-522-541>543-300200-
LAKESHORE

STATION/POSITION TIME  TEMP    WIND        PRES    VSBY  WAVE
                       AIR SEA DIR/SP/G                  HT/PER
                 (UTC) (F)     (DEG/KT/KT) (MB)    (MI)  (FT/S)
SHEBOYGAN LKSHOR 0000   61      10/ 19/ 21 1025.7F
KEWAUNEE LKSHORE 0000   62      40/ 12/ 19 1026.6R
NORTHPORT PIER   0000   64      20/  8/ 11 1028.4R
N MID LAKE BUOY  2350   66 65   90/ 19/ 21 1027.7R         3/ 4
S GREEN BAY BUOY 0000   64 63   50/ 14/ 16 1027.2R
CHAMBERS ISLAND  0000   64      10/ 17/ 21 1027.8S
MENOMINEE LKSHOR 0000   64      30/ 19/ 22 1027.3R
$$




USA.gov is the U.S. government's official web portal to all federal, state and local government web resources and services.